Change the Weather History Date:

Tuesday, November 6, 2012

  Actual Average Record
Temperature  
Mean Temperature 77 °F -  
Max Temperature 82 °F - - ()
Min Temperature 72 °F - - ()
Cooling Degree Days 12    
Growing Degree Days 27 (Base 50)    
Moisture  
Dew Point 60 °F    
Average Humidity 57    
Maximum Humidity 65    
Minimum Humidity 39    
Precipitation  
Precipitation 0.00 in - - ()
Sea Level Pressure  
Sea Level Pressure 29.98 in    
Wind  
Wind Speed 18 mph ()    
Max Wind Speed 24 mph    
Max Gust Speed -    
T = Trace of Precipitation, MM = Missing Value Source: Averaged Metar Reports

Daily Weather History Graph

Daily Weather History Graph

Search for Another Location

Airport or City:

Trip Planner

Search our weather history database for the weather conditions in past years. The results will help you decide how hot, cold, wet, or windy it might be!

Date:

Astronomy

Nov. 06, 2012 Rise Set
Actual Time 5:19 AM AEST 6:16 PM AEST
Civil Twilight 4:56 AM AEST 6:39 PM AEST
Nautical Twilight 4:29 AM AEST 7:06 PM AEST
Astronomical Twilight 4:01 AM AEST 7:34 PM AEST
Moon No Moon Rise 10:53 AM AEST (11/6)
Length of Visible Light 13h 43m
Length of Day
12h 56m
Waning Gibbous, 59% of the Moon is Illuminated
Nov 6
Waning Gibbous
Nov 7
Last Quarter
Nov 14
New
Nov 21
First Quarter
Nov 29
Full

Hourly Weather History & Observations

Time (AEST) Temp. Heat Index Dew Point Humidity Pressure Visibility Wind Dir Wind Speed Gust Speed Precip Events Conditions
12:00 AM 74 °F - 61 °F 56% 30.01 in - ESE 20.7 mph - -  
12:00 AM 73.4 °F - 60.8 °F 65% 30.01 in - ESE 20.7 mph - N/A   Unknown
12:30 AM 73.4 °F - 60.8 °F 65% 30.01 in - ESE 21.9 mph - N/A   Unknown
1:00 AM 73.4 °F - 60.8 °F 65% 29.98 in - ESE 19.6 mph - N/A   Unknown
1:30 AM 73.4 °F - 60.8 °F 65% 29.98 in - ESE 18.4 mph - N/A   Unknown
2:00 AM 73.4 °F - 60.8 °F 65% 29.98 in - ESE 20.7 mph - N/A   Unknown
2:30 AM 73.4 °F - 59.0 °F 61% 29.98 in - SE 19.6 mph - N/A   Unknown
3:00 AM 73 °F - 58 °F 49% 29.99 in - SE 20.7 mph - -  
3:00 AM 73.4 °F - 57.2 °F 57% 29.98 in - SE 20.7 mph - N/A   Unknown
3:30 AM 73.4 °F - 59.0 °F 61% 29.98 in - SE 19.6 mph - N/A   Unknown
4:00 AM 73.4 °F - 60.8 °F 65% 30.01 in - SE 18.4 mph - N/A   Unknown
4:30 AM 73.4 °F - 60.8 °F 65% 30.01 in - SE 17.3 mph - N/A   Unknown
5:00 AM 73.4 °F - 59.0 °F 61% 30.01 in - SE 18.4 mph - N/A   Unknown
5:30 AM 73.4 °F - 60.8 °F 65% 30.01 in - SE 20.7 mph - N/A   Unknown
6:00 AM 74 °F - 60 °F 53% 30.01 in - SE 18.4 mph - -  
6:00 AM 73.4 °F - 60.8 °F 65% 30.01 in - SE 18.4 mph - N/A   Unknown
6:30 AM 75.2 °F - 59.0 °F 57% 30.01 in - ESE 21.9 mph - N/A   Unknown
7:00 AM 75.2 °F - 59.0 °F 57% 30.01 in - ESE 20.7 mph - N/A   Unknown
7:30 AM 77.0 °F - 60.8 °F 57% 30.01 in - SE 19.6 mph - N/A   Unknown
8:00 AM 78.8 °F - 59.0 °F 51% 30.01 in - SE 17.3 mph - N/A   Unknown
8:30 AM 78.8 °F - 59.0 °F 51% 30.04 in - ESE 18.4 mph - N/A   Unknown
9:00 AM 79 °F - 58 °F 39% 30.04 in - ESE 16.1 mph - -  
9:00 AM 78.8 °F - 59.0 °F 51% 30.04 in - ESE 16.1 mph - N/A   Unknown
9:30 AM 80.6 °F 80.8 °F 57.2 °F 45% 30.04 in - ESE 17.3 mph - N/A   Unknown
10:00 AM 80.6 °F 81.1 °F 59.0 °F 48% 30.04 in - ESE 16.1 mph - N/A   Unknown
10:30 AM 80.6 °F 80.8 °F 57.2 °F 45% 30.04 in - ESE 17.3 mph - N/A   Unknown
11:00 AM 80.6 °F 81.1 °F 59.0 °F 48% 30.01 in - ESE 17.3 mph - N/A   Unknown
11:30 AM 82.4 °F 82.9 °F 60.8 °F 48% 30.01 in - ESE 17.3 mph - N/A   Unknown
12:00 PM 81 °F - 60 °F 39% 30.00 in - ESE 17.3 mph - -  
12:00 PM 80.6 °F 81.5 °F 60.8 °F 51% 30.01 in - ESE 17.3 mph - N/A   Unknown
12:30 PM 80.6 °F 81.1 °F 59.0 °F 48% 29.98 in - ESE 16.1 mph - N/A   Unknown
1:00 PM 80.6 °F 81.5 °F 60.8 °F 51% 29.98 in - ESE 17.3 mph - N/A   Unknown
1:30 PM 78.8 °F - 60.8 °F 54% 29.95 in - ESE 18.4 mph - N/A   Unknown
2:00 PM 80.6 °F 81.8 °F 62.6 °F 54% 29.95 in - ESE 19.6 mph - N/A   Unknown
2:30 PM 78.8 °F - 60.8 °F 54% 29.92 in - ESE 21.9 mph - N/A   Unknown
3:00 PM 78 °F - 59 °F 43% 29.92 in - ESE 20.7 mph - -  
3:00 PM 78.8 °F - 59.0 °F 51% 29.92 in - ESE 20.7 mph - N/A   Unknown
3:30 PM 77.0 °F - 60.8 °F 57% 29.92 in - ESE 21.9 mph - N/A   Unknown
4:00 PM 77.0 °F - 60.8 °F 57% 29.92 in - ESE 21.9 mph - N/A   Unknown
4:30 PM 77.0 °F - 60.8 °F 57% 29.92 in - ESE 23.0 mph - N/A   Unknown
5:00 PM 75.2 °F - 60.8 °F 61% 29.92 in - ESE 24.2 mph - N/A   Unknown
5:30 PM 75.2 °F - 60.8 °F 61% 29.92 in - ESE 24.2 mph - N/A   Unknown
6:00 PM 75 °F - 62 °F 55% 29.94 in - ESE 23.0 mph - -  
6:00 PM 75.2 °F - 62.6 °F 65% 29.95 in - ESE 23.0 mph - N/A   Unknown
6:30 PM 75.2 °F - 60.8 °F 61% 29.95 in - ESE 21.9 mph - N/A   Unknown
7:00 PM 75.2 °F - 60.8 °F 61% 29.98 in - ESE 21.9 mph - N/A   Unknown
7:30 PM 75.2 °F - 60.8 °F 61% 29.98 in - ESE 24.2 mph - N/A   Unknown
8:00 PM 75.2 °F - 60.8 °F 61% 29.98 in - ESE 23.0 mph - N/A   Unknown
8:30 PM 75.2 °F - 60.8 °F 61% 29.98 in - ESE 20.7 mph - N/A   Unknown
9:00 PM 74 °F - 61 °F 54% 29.99 in - ESE 21.9 mph - -  
9:00 PM 75.2 °F - 60.8 °F 61% 29.98 in - ESE 21.9 mph - N/A   Unknown
9:30 PM 75.2 °F - 62.6 °F 65% 29.98 in - ESE 18.4 mph - N/A   Unknown
10:00 PM 75.2 °F - 60.8 °F 61% 29.98 in - ESE 20.7 mph - N/A   Unknown
10:30 PM 75.2 °F - 59.0 °F 57% 29.98 in - ESE 21.9 mph - N/A   Unknown
11:00 PM 75.2 °F - 60.8 °F 61% 29.98 in - ESE 20.7 mph - N/A   Unknown
11:30 PM 75.2 °F - 62.6 °F 65% 29.98 in - ESE 19.6 mph - N/A   Unknown